Nellis AFB, NV

8:10 PM PST on February 17, 2018 (GMT -0800)
Nellis Air Force Base

Weather History for KLSV - April, 2013

Change the Weather History Date:

Tuesday, April 23, 2013

  Actual Average Record
Temperature  
Mean Temperature 67 °F -  
Max Temperature 74 °F 78 °F 98 °F (2012)
Min Temperature 58 °F 54 °F 44 °F (2003)
Cooling Degree Days 2    
Growing Degree Days 17 (Base 50)    
Moisture  
Dew Point 15 °F    
Average Humidity 13    
Maximum Humidity 20    
Minimum Humidity 7    
Precipitation  
Precipitation 0.00 in - - ()
Sea Level Pressure  
Sea Level Pressure 29.93 in    
Wind  
Wind Speed 23 mph (NE)    
Max Wind Speed 37 mph    
Max Gust Speed 56 mph    
Visibility 10 miles    
Events      
Averages and records for this station are not official NWS values.
T = Trace of Precipitation, MM = Missing Value Source: NWS Daily Summary

Daily Weather History Graph

Daily Weather History Graph

Search for Another Location

Airport or City:

Trip Planner

Search our weather history database for the weather conditions in past years. The results will help you decide how hot, cold, wet, or windy it might be!

Date:

Astronomy

Apr. 23, 2013 Rise Set
Actual Time 5:56 AM PDT 7:21 PM PDT
Civil Twilight 5:29 AM PDT 7:48 PM PDT
Nautical Twilight 4:56 AM PDT 8:20 PM PDT
Astronomical Twilight 4:22 AM PDT 8:54 PM PDT
Moon 5:23 PM PDT (4/23) 4:22 AM PDT (4/23)
Length of Visible Light 14h 19m
Length of Day
13h 25m
Waxing Gibbous, 94% of the Moon is Illuminated
Apr 23
Waxing Gibbous
Apr 25
Full
May 2
Last Quarter
May 9
New
May 17
First Quarter

Hourly Weather History & Observations

Time (PDT) Temp. Dew Point Humidity Pressure Visibility Wind Dir Wind Speed Gust Speed Precip Events Conditions
12:03 AM 75.2 °F 23.0 °F 14% 29.78 in 8.0 mi NNE 36.8 mph 41.4 mph N/A   Mostly Cloudy
12:08 AM 75.2 °F 23.0 °F 14% 29.78 in 6.0 mi NNE 34.5 mph 47.2 mph N/A   Haze
12:18 AM 75.2 °F 23.0 °F 14% 29.79 in 8.0 mi NNE 32.2 mph 47.2 mph N/A   Mostly Cloudy
12:43 AM 71.6 °F 24.8 °F 17% 29.82 in 5.0 mi NNE 23.0 mph 50.6 mph N/A   Haze
12:53 AM 71.6 °F 23.0 °F 16% 29.84 in 8.0 mi NE 19.6 mph 56.4 mph N/A   Clear
12:58 AM 70.7 °F 23.4 °F 17% 29.79 in 8.0 mi ENE 26.5 mph 56.4 mph N/A   Clear
1:03 AM 69.8 °F 24.8 °F 18% 29.85 in 10.0 mi ENE 20.7 mph 35.7 mph N/A   Clear
1:58 AM 68.0 °F 21.2 °F 17% 29.81 in 10.0 mi North 19.6 mph 38.0 mph N/A   Clear
2:06 AM 68.0 °F 21.2 °F 17% 29.88 in 10.0 mi North 21.9 mph 38.0 mph N/A   Clear
2:10 AM 68.0 °F 19.4 °F 16% 29.88 in 10.0 mi NNE 33.4 mph 49.5 mph N/A   Partly Cloudy
2:15 AM 68.0 °F 19.4 °F 16% 29.90 in 8.0 mi North 8.1 mph 49.5 mph N/A   Scattered Clouds
2:19 AM 68.0 °F 19.4 °F 16% 29.90 in 8.0 mi NE 27.6 mph 49.5 mph N/A   Mostly Cloudy
2:24 AM 68.0 °F 19.4 °F 16% 29.90 in 10.0 mi North 23.0 mph 47.2 mph N/A   Mostly Cloudy
2:25 AM 68.0 °F 19.4 °F 16% 29.91 in 10.0 mi North 17.3 mph 47.2 mph N/A   Mostly Cloudy
2:26 AM 68.0 °F 19.4 °F 16% 29.91 in 10.0 mi North 15.0 mph 47.2 mph N/A   Mostly Cloudy
2:27 AM 68.0 °F 19.4 °F 16% 29.91 in 10.0 mi North 15.0 mph 47.2 mph N/A   Mostly Cloudy
2:28 AM 68.0 °F 19.4 °F 16% 29.90 in 10.0 mi NNE 20.7 mph 47.2 mph N/A   Mostly Cloudy
2:29 AM 68.0 °F 19.4 °F 16% 29.90 in 10.0 mi NNE 29.9 mph 47.2 mph N/A   Mostly Cloudy
2:30 AM 68.0 °F 19.4 °F 16% 29.89 in 10.0 mi NNE 35.7 mph 47.2 mph N/A   Mostly Cloudy
2:32 AM 68.0 °F 17.6 °F 15% 29.90 in 10.0 mi NNE 25.3 mph 47.2 mph N/A   Overcast
2:33 AM 68.0 °F 17.6 °F 15% 29.90 in 10.0 mi NNE 21.9 mph 47.2 mph N/A   Overcast
2:40 AM 66.2 °F 17.6 °F 15% 29.91 in 10.0 mi NE 20.7 mph 41.4 mph N/A   Overcast
2:58 AM 66.0 °F 16.2 °F 15% 29.87 in 10.0 mi NNE 21.9 mph 51.8 mph N/A   Mostly Cloudy
3:58 AM 63.7 °F 12.9 °F 14% 29.91 in 10.0 mi NNE 28.8 mph 42.6 mph N/A   Clear
4:58 AM 61.7 °F 12.9 °F 15% 29.95 in 10.0 mi NNE 28.8 mph 36.8 mph N/A   Clear
5:58 AM 59.4 °F 14.7 °F 17% 29.99 in 10.0 mi NE 24.2 mph 34.5 mph N/A   Clear
6:58 AM 59.0 °F 17.1 °F 20% 30.04 in 10.0 mi NNE 32.2 mph 38.0 mph N/A   Clear
7:59 AM 59.7 °F 17.6 °F 19% 30.07 in 10.0 mi NNE 23.0 mph 31.1 mph N/A   Clear
8:58 AM 61.0 °F 17.1 °F 18% 30.09 in 10.0 mi NNE 21.9 mph 28.8 mph N/A   Clear
9:58 AM 62.6 °F 15.8 °F 16% 30.09 in 10.0 mi NE 26.5 mph 32.2 mph N/A   Clear
10:58 AM 65.1 °F 12.4 °F 13% 30.07 in 10.0 mi NE 17.3 mph 28.8 mph N/A   Partly Cloudy
11:22 AM 66.2 °F 12.2 °F 12% 30.11 in 10.0 mi ENE 17.3 mph 23.0 mph N/A   Clear
11:58 AM 66.7 °F 10.9 °F 11% 30.06 in 10.0 mi ENE 19.6 mph 27.6 mph N/A   Clear
12:29 PM 68.0 °F 12.2 °F 12% 30.09 in 10.0 mi NNE 19.6 mph 26.5 mph N/A   Clear
12:46 PM 69.8 °F 10.4 °F 10% 30.08 in 10.0 mi North 18.4 mph 24.2 mph N/A   Clear
12:58 PM 68.9 °F 10.8 °F 11% 30.03 in 10.0 mi NE 13.8 mph 24.2 mph N/A   Clear
1:58 PM 70.7 °F 9.5 °F 9% 30.00 in 10.0 mi NE 17.3 mph 24.2 mph N/A   Clear
2:41 PM 71.6 °F 8.6 °F 9% 30.02 in 10.0 mi NNE 13.8 mph 21.9 mph N/A   Clear
2:53 PM 73.4 °F 8.6 °F 8% 30.00 in 10.0 mi ENE 12.7 mph - N/A   Clear
2:58 PM 72.9 °F 8.4 °F 8% 29.96 in 10.0 mi ENE 12.7 mph 18.4 mph N/A   Clear
3:13 PM 73.4 °F 8.6 °F 8% 29.99 in 10.0 mi North 11.5 mph - N/A   Clear
3:58 PM 73.8 °F 6.3 °F 7% 29.92 in 10.0 mi NE 12.7 mph 18.4 mph N/A   Clear
4:29 PM 73.4 °F 6.8 °F 8% 29.95 in 10.0 mi NE 12.7 mph 20.7 mph N/A   Clear
4:58 PM 74.3 °F 6.6 °F 7% 29.90 in 10.0 mi NE 12.7 mph - N/A   Clear
5:58 PM 73.4 °F 5.9 °F 7% 29.88 in 10.0 mi NE 10.4 mph - N/A   Clear
6:56 PM 71.6 °F 5.0 °F 7% 29.92 in 10.0 mi ENE 10.4 mph - N/A   Clear
7:58 PM 67.8 °F 4.6 °F 8% 29.90 in 10.0 mi NE 5.8 mph - N/A   Clear
8:58 PM 64.6 °F 4.6 °F 9% 29.91 in 10.0 mi ENE 6.9 mph - N/A   Clear
9:58 PM 63.5 °F 3.7 °F 9% 29.90 in 10.0 mi East 4.6 mph - N/A   Clear
10:58 PM 62.4 °F 4.8 °F 10% 29.91 in 10.0 mi Calm Calm - N/A   Clear
11:58 PM 58.5 °F 6.1 °F 12% 29.90 in 10.0 mi NNE 9.2 mph - N/A   Clear